STARLINK-1622, 46128

Orbit data source: Space-Track

STARLINK-1622, 46128 is a payload satellite owned by SpaceX/Seattle (US) in LEO that was launched on Tue, 18 Aug 2020 UTC via an FALCON 9 launch vehicle from the Air Force Eastern Test Range (AFETR). Payload-class satellites include a variety of spacecraft equipped with specific instruments for various scientific and technological missions. These include communications satellites like Starlink; space stations such as the ISS; scientific satellites like the Hubble; Earth observation satellites from companies like Planet Labs, Umbra, and HawkEye 360; GPS; miniature CubeSats for education and research; and military/defense satellites.

Loading next visibility...
Identifier
46128, 2020-057M
Orbit
LEO
Country
Flag of USUS
Related business
Manufacturer
SpaceX/Seattle
Mission
Partially operational Commercial Communications
Bus & Motor
STARLINK, Unknown motor
Mass
260 kg wet, ~248 kg dry
Launch date (UTC)
2020-08-18 (6 years ago)
Launch vehicle
FALCON 9
Launch site
Air Force Eastern Test Range (AFETR)
Object type
Payload
Rocket body
Debris
Shape & HBR
Box + 1 Pan, 10.1 m
Radar Cross Section
13.562 m², Large (>1 m²)

Expand to show TLE details & history
Last TLE update: 11 hours ago

TLE from 11 hours ago
0 STARLINK-1622
1 46128U 20057M   26072.00002315 -.00029465  00000-0 -29010-3 0  9996
2 46128  53.0211 207.9527 0003593 201.5021  48.8279 15.64983023  5798
Epoch: 2026-03-13T00:00Z
TLE epoch observation values (Epoch: 2026-03-13T00:00:02.000Z)
Latitude
-48.97507°
Longitude
-83.31326°
Altitude
388.504 km
Speed
7.678 km/s
True Right ascension
05h 49m 20s
True Declination
-48° 47' 43"
Sunlit
Object was in daylight at epoch
Visualization orbit readout
Latitude
Unknown
Longitude
Unknown
Altitude
Unknown
Speed
Unknown
Apparent Right ascension
Unknown
Apparent Declination
Unknown
Sunlit
N/A
Visualization observer readout
Local Sidereal Time
15:40:34
Azimuth
Unknown
Elevation
Unknown
Doppler factor
Unknown
Orbital elements
Apogee altitude
375.996 km
Perigee altitude
371.145 km
Semi-major axis
6,751.708 km
Eccentricity
0.00036
Inclination
53.0211°
RAAN
207.9527°
Arg. of periapsis
201.5021°
True anomaly
48.8589°
Mean anomaly
48.8279°
Eccentric anomaly
48.8434°
Mean motion
3.91222 °/min
Orbital period
92.02 mins
BSTAR
-0.0002901
Loading maneuver chart data...
Computing Atmospheric mass density...

Documentation

Showing up to 5 results
|